Regional Weather Roundup
Issued by NWS Mt. Holly, NJ

Home | Current Version | Previous Version | Text Only | Print | Product List | Glossary On
Versions: 1 2 3 4 5 6 7 8 9 10 11 12 13 14 15 16 17 18 19 20 21 22 23 24 25 26 27 28 29 30 31 32 33 34 35 36 37 38 39 40 41 42 43 44 45 46 47 48 49 50
000
ASUS41 KPHI 140712
RWRPHI

REGIONAL WEATHER ROUNDUP
NATIONAL WEATHER SERVICE MOUNT HOLLY NJ
200 AM EST THU NOV 14 2019

NOTE:  "FAIR" INDICATES FEW OR NO CLOUDS BELOW 12,000 FEET WITH NO
SIGNIFICANT WEATHER AND/OR OBSTRUCTIONS TO VISIBILITY.

 * = STATION DOES NOT REPORT PRECIPITATION (E.G. RAIN, SNOW, ETC.)
        OR FOG.

NJZ015>026-140800-
SOUTHERN NEW JERSEY

CITY           SKY/WX    TMP DP  RH WIND       PRES   REMARKS
POMONA         FAIR      22  14  71 CALM      30.44F
WILDWOOD*      FAIR      23  18  81 CALM      30.45S
MILLVILLE      FAIR      19  15  84 CALM      30.44F
WRIGHTSTOWN    FAIR      20  15  82 CALM      30.43F
MOUNT HOLLY    FAIR      21  16  81 CALM      30.45S
TRENTON        FAIR      25  13  60 CALM      30.43S

$$
NJZ001>014-140800-
NORTHERN NEW JERSEY

CITY           SKY/WX    TMP DP  RH WIND       PRES   REMARKS
SUSSEX         FAIR      20  13  74 CALM      30.42R
ANDOVER*         N/A     21  15  78 CALM      30.41S
MORRISTOWN     FAIR      21  19  93 CALM      30.44R
NEWARK         MOCLDY    27  11  51 N6        30.46R WCI  20
TETERBORO      FAIR      26  13  57 N5        30.45S WCI  20
CALDWELL       FAIR      24  15  68 CALM      30.46R
SOMERVILLE     FAIR      20  17  88 CALM      30.43F
ALLAIRE*       FAIR      22  13  68 NW3       30.45S
TOMS RIVER*    FAIR      17  17 100 CALM      30.45F

$$
PAZ043-044-047-054-055-060>062-066>071-140800-
EASTERN PENNSYLVANIA

CITY           SKY/WX    TMP DP  RH WIND       PRES   REMARKS
PHILADELPHIA   CLOUDY    28  12  51 E7        30.45S WCI  21
NORTH PHILA    FAIR      27  13  55 E3        30.45S
BLUE BELL*     FAIR      22  20  91 E3        30.42F
DOYLESTOWN     FAIR      26  10  50 CALM      30.41F
QUAKERTOWN*    CLEAR     23  14  68 CALM      30.41S
PERKASIE*      FAIR      25   9  50 E3        30.41F
POTTSTOWN      FAIR      24  14  65 CALM      30.43F
LANCASTER      FAIR      25  17  72 E3        30.40S
COATESVILLE    FAIR      25  14  63 CALM      30.40F
WEST CHESTER     N/A     27  19  74 CALM      30.41F
READING        FAIR      28  17  63 S8        30.39F WCI  20
ALLENTOWN      FAIR      24  12  60 NE3       30.41S
QN CITY/ALNTWN FAIR      28  12  50 CALM      30.41F
MOUNT POCONO   FAIR      17   7  64 SE6       30.29S WCI   9
HAZLETON       FAIR      23   9  54 CALM      30.32F
LEHIGHTON      FAIR      21  19  93 CALM      30.41S
WILKES BARRE   FAIR      25   8  48 VRB3      30.33F

$$
DEZALL-MDZ008-012-015-019-020-140800-
DELAWARE AND EASTERN MARYLAND

CITY           SKY/WX    TMP DP  RH WIND       PRES   REMARKS
WILMINGTON     FAIR      29  17  61 CALM      30.44S
CHESWOLD       SUNNY     21  19  93 CALM      30.43F
GEORGETOWN     FAIR      23  20  88 CALM      30.44S
EASTON         FAIR      26  20  77 CALM      30.47S
STEVENSVILLE   FAIR      32  21  64 SE8       30.42F WCI  25
PATUXENT       FAIR      27  19  72 SW6       30.43F WCI  20
OCEAN CITY     FAIR      23  19  85 CALM      30.45S
WALLOPS ISLAND FAIR      22  20  92 NW3       30.44F
SALISBURY      FAIR      22  17  81 CALM      30.44F

$$
PAZ001-021-NYZ056-072-MDZ011-DCZ001-140800-
OTHER NEARBY LOCATIONS

CITY           SKY/WX    TMP DP  RH WIND       PRES   REMARKS
HARRISBURG     MOCLDY    31  17  56 S9        30.38F WCI  23
STATE COLLEGE  FAIR      27  12  52 S8        30.27S WCI  19
WILLIAMSPORT   FAIR      28  14  55 E10       30.33F WCI  19
BINGHAMTON     MOCLDY    19   7  59 S9        30.24F WCI   8
NEW YORK CITY  FAIR      30   9  41 VRB6      30.46S WCI  24
BALTIMORE      FAIR      24  18  77 CALM      30.41F
WASHINGTON DC  MOCLDY    31  18  58 S9        30.43S WCI  23

$$



USA.gov is the U.S. government's official web portal to all federal, state and local government web resources and services.